TimeEDT,TemperatureF,Dew PointF,Humidity,Sea Level PressureIn,VisibilityMPH,Wind Direction,Wind SpeedMPH,Gust SpeedMPH,PrecipitationIn,Events,Conditions,WindDirDegrees,DateUTC
12:15 AM,64.4,42.8,45,29.92,10.0,SSE,25.3,40.3,N/A,,Partly Cloudy,150,2013-03-11 04:15:00
12:35 AM,62.6,42.8,48,29.91,10.0,SSE,23.0,-,N/A,,Partly Cloudy,160,2013-03-11 04:35:00
12:55 AM,62.6,42.8,48,29.91,10.0,SSE,20.7,36.8,N/A,,Clear,160,2013-03-11 04:55:00
1:35 AM,62.6,42.8,48,29.89,10.0,SSE,23.0,-,N/A,,Clear,160,2013-03-11 05:35:00
1:55 AM,62.6,44.6,52,29.88,10.0,SSE,21.9,40.3,N/A,,Clear,160,2013-03-11 05:55:00
2:15 AM,62.6,44.6,52,29.87,10.0,SSE,26.5,36.8,N/A,,Clear,160,2013-03-11 06:15:00
2:35 AM,62.6,44.6,52,29.87,10.0,SSE,25.3,40.3,N/A,,Clear,160,2013-03-11 06:35:00
2:55 AM,62.6,44.6,52,29.86,10.0,SSE,25.3,36.8,N/A,,Clear,160,2013-03-11 06:55:00
3:15 AM,62.6,44.6,52,29.86,10.0,SSE,23.0,38.0,N/A,,Clear,160,2013-03-11 07:15:00
3:35 AM,62.6,44.6,52,29.87,10.0,South,23.0,-,N/A,,Clear,170,2013-03-11 07:35:00
3:55 AM,62.6,44.6,52,29.88,10.0,South,17.3,-,N/A,,Clear,170,2013-03-11 07:55:00
4:15 AM,60.8,44.6,55,29.85,10.0,SSE,23.0,-,N/A,,Clear,160,2013-03-11 08:15:00
4:35 AM,60.8,44.6,55,29.82,10.0,SSE,21.9,-,N/A,,Clear,150,2013-03-11 08:35:00
4:55 AM,60.8,44.6,55,29.80,10.0,SSE,26.5,-,N/A,,Partly Cloudy,160,2013-03-11 08:55:00
5:15 AM,60.8,44.6,55,29.81,10.0,South,26.5,38.0,N/A,,Partly Cloudy,170,2013-03-11 09:15:00
5:35 AM,60.8,44.6,55,29.82,10.0,SSE,23.0,-,N/A,,Mostly Cloudy,160,2013-03-11 09:35:00
5:55 AM,57.2,48.2,72,29.84,9.0,South,25.3,-,N/A,,Overcast,170,2013-03-11 09:55:00
6:15 AM,57.2,48.2,72,29.85,10.0,South,17.3,-,N/A,,Overcast,170,2013-03-11 10:15:00
6:35 AM,57.2,46.4,67,29.85,10.0,South,16.1,-,N/A,,Overcast,170,2013-03-11 10:35:00
6:55 AM,57.2,46.4,67,29.85,10.0,South,15.0,-,N/A,,Overcast,170,2013-03-11 10:55:00
7:15 AM,55.4,48.2,77,29.84,9.0,SSE,17.3,29.9,N/A,,Overcast,160,2013-03-11 11:15:00
7:35 AM,55.4,48.2,77,29.81,10.0,SSE,19.6,-,N/A,,Overcast,160,2013-03-11 11:35:00
7:55 AM,57.2,48.2,72,29.80,10.0,South,20.7,29.9,N/A,,Overcast,170,2013-03-11 11:55:00
8:15 AM,57.2,48.2,72,29.79,10.0,South,16.1,-,N/A,,Overcast,170,2013-03-11 12:15:00
8:35 AM,55.4,48.2,77,29.78,10.0,South,16.1,-,N/A,,Overcast,170,2013-03-11 12:35:00
8:55 AM,55.4,50.0,82,29.79,10.0,South,20.7,-,N/A,,Mostly Cloudy,170,2013-03-11 12:55:00
9:15 AM,55.4,51.8,88,29.83,10.0,South,10.4,-,N/A,,Overcast,190,2013-03-11 13:15:00
9:35 AM,55.4,51.8,88,29.85,7.0,SSW,13.8,-,N/A,,Mostly Cloudy,200,2013-03-11 13:35:00
9:55 AM,53.6,51.8,94,29.86,3.0,Variable,5.8,-,N/A,,Overcast,0,2013-03-11 13:55:00
10:15 AM,53.6,51.8,94,29.87,3.0,WSW,5.8,-,N/A,,Overcast,240,2013-03-11 14:15:00
10:35 AM,51.8,51.8,100,29.85,3.0,Calm,Calm,-,N/A,,Overcast,0,2013-03-11 14:35:00
10:55 AM,51.8,51.8,100,29.85,4.0,Calm,Calm,-,N/A,,Overcast,0,2013-03-11 14:55:00
11:15 AM,53.6,51.8,94,29.87,3.0,SW,6.9,-,N/A,,Overcast,220,2013-03-11 15:15:00
11:35 AM,53.6,51.8,94,29.87,2.5,SSW,4.6,-,N/A,,Overcast,200,2013-03-11 15:35:00
11:55 AM,53.6,51.8,94,29.88,2.0,WSW,6.9,-,N/A,,Overcast,240,2013-03-11 15:55:00
12:15 PM,53.6,51.8,94,29.87,4.0,South,6.9,-,N/A,,Overcast,180,2013-03-11 16:15:00
12:35 PM,53.6,53.6,100,29.86,7.0,SW,4.6,-,N/A,,Mostly Cloudy,220,2013-03-11 16:35:00
12:55 PM,51.8,51.8,100,29.84,9.0,WSW,5.8,-,N/A,,Overcast,250,2013-03-11 16:55:00
1:15 PM,51.8,51.8,100,29.86,4.0,Calm,Calm,-,N/A,,Mostly Cloudy,0,2013-03-11 17:15:00
1:35 PM,51.8,51.8,100,29.84,4.0,Calm,Calm,-,N/A,,Overcast,0,2013-03-11 17:35:00
1:55 PM,53.6,51.8,94,29.83,3.0,South,6.9,-,N/A,,Overcast,170,2013-03-11 17:55:00
2:15 PM,53.6,51.8,94,29.80,4.0,South,8.1,-,N/A,,Overcast,190,2013-03-11 18:15:00
2:35 PM,53.6,50.0,88,29.80,3.0,SW,13.8,26.5,N/A,,Mostly Cloudy,230,2013-03-11 18:35:00
2:55 PM,46.4,44.6,93,29.83,10.0,West,12.7,-,N/A,,Overcast,270,2013-03-11 18:55:00
3:15 PM,44.6,44.6,100,29.82,10.0,West,9.2,-,N/A,,Overcast,260,2013-03-11 19:15:00
3:35 PM,44.6,44.6,100,29.83,10.0,WSW,10.4,-,N/A,,Overcast,250,2013-03-11 19:35:00
3:55 PM,44.6,44.6,100,29.83,10.0,WSW,9.2,-,N/A,,Overcast,250,2013-03-11 19:55:00
4:15 PM,44.6,44.6,100,29.83,10.0,WNW,12.7,-,N/A,,Overcast,290,2013-03-11 20:15:00
4:35 PM,42.8,42.8,100,29.84,10.0,West,11.5,-,N/A,,Overcast,270,2013-03-11 20:35:00
4:55 PM,44.6,42.8,93,29.84,10.0,West,8.1,-,N/A,,Overcast,270,2013-03-11 20:55:00
5:15 PM,44.6,42.8,93,29.85,10.0,WSW,6.9,-,N/A,,Overcast,240,2013-03-11 21:15:00
5:35 PM,44.6,42.8,93,29.84,10.0,SW,6.9,-,N/A,,Mostly Cloudy,220,2013-03-11 21:35:00
5:55 PM,46.4,42.8,87,29.86,10.0,SW,8.1,-,N/A,,Overcast,220,2013-03-11 21:55:00
6:15 PM,46.4,41.0,81,29.87,10.0,WSW,5.8,-,N/A,,Overcast,240,2013-03-11 22:15:00
6:35 PM,46.4,39.2,76,29.87,10.0,WSW,6.9,-,N/A,,Overcast,250,2013-03-11 22:35:00
6:55 PM,44.6,39.2,81,29.88,10.0,West,6.9,-,N/A,,Overcast,280,2013-03-11 22:55:00
7:15 PM,44.6,37.4,76,29.88,10.0,West,6.9,-,N/A,,Overcast,260,2013-03-11 23:15:00
7:35 PM,44.6,37.4,76,29.89,10.0,West,5.8,-,N/A,,Overcast,270,2013-03-11 23:35:00
7:55 PM,44.6,37.4,76,29.89,10.0,West,5.8,-,N/A,,Overcast,280,2013-03-11 23:55:00
8:15 PM,44.6,37.4,76,29.90,10.0,West,4.6,-,N/A,,Overcast,270,2013-03-12 00:15:00
8:35 PM,44.6,37.4,76,29.91,10.0,WNW,8.1,-,N/A,,Overcast,290,2013-03-12 00:35:00
8:55 PM,42.8,35.6,76,29.92,10.0,West,5.8,-,N/A,,Overcast,280,2013-03-12 00:55:00
9:15 PM,42.8,35.6,76,29.92,10.0,WNW,3.5,-,N/A,,Overcast,290,2013-03-12 01:15:00
9:35 PM,42.8,37.4,81,29.93,10.0,NW,9.2,-,N/A,,Overcast,320,2013-03-12 01:35:00
9:55 PM,41.0,35.6,81,29.94,10.0,NNW,9.2,-,N/A,,Overcast,330,2013-03-12 01:55:00
10:35 PM,39.2,33.8,81,29.96,10.0,NW,6.9,-,N/A,,Overcast,320,2013-03-12 02:35:00
10:55 PM,39.2,33.8,81,29.96,10.0,NW,6.9,-,N/A,,Overcast,320,2013-03-12 02:55:00
11:15 PM,39.2,33.8,81,29.97,10.0,NW,10.4,-,N/A,,Overcast,310,2013-03-12 03:15:00
11:35 PM,39.2,32.0,75,29.97,10.0,NW,10.4,-,N/A,,Overcast,320,2013-03-12 03:35:00
11:55 PM,37.4,32.0,81,29.97,10.0,NW,10.4,-,N/A,,Overcast,310,2013-03-12 03:55:00